Location: Ravensburg
(47.7866°N, 9.6124°E)
Time: 05:39:20
(UTC+02:00)

AO-73 - Pass Details

Date: 17 March 2026
Orbit: 514 x 567 km, 97.8° (Epoch: 17 April)

Event Time Altitude Azimuth Distance (km) Brightness Sun altitude
Rises 04:51:07 0° 5° (N) 2,669 ? -17.4°
Reaches altitude 10° 04:53:22 10° 357° (N) 1,768 ? -17.0°
Maximum altitude 04:56:50 35° 291° (WNW) 862 ? -16.5°
Enters shadow 04:57:19 33° 273° (W) 888 ? -16.4°
